Content
SEND FEEDBACK

Daily
Averages
Monthly
Summary
United States of America

CHESTERFIELD, MISSOURI


Home > North America > United States > Missouri
Elevation: 170 meters     Latitude: 38 41N     Longitude: 090 31W

WEATHER
 
SELECT A DAY
Number of Records: 203,345;   Date Range: 1/1/95 - 7/22/14
 
SHARE

PRINT THIS DATA

[ ← Previous Day ]
WEATHER ALMANAC - 4 APRIL, 2013
[ Next Day → ]
[ °F ]   °C
Weather ElementAverageHighLow
Temperature9.6 °C16.1 °C (3:51 pm)3 °C (6:51 am)
Dewpoint-5.7 °C-2.8 °C (10:51 pm)-9.4 °C (10:51 am)
Humidity36.1 %53 % (5:51 am)22 % (2:51 pm)
Barometer1020.3 hPa1024.4 hPa (1:51 am)1017.6 hPa (5:51 pm)
Wind Speed6.8 km/h13 km/h (3:51 pm)
Weather ElementAverage
Visibility16.1 km
Wind DirectionESE (107.4 °)

Weather ElementTotal
Precipitation---
Heating Degree Days8.8 (Base 18.3)
Averaged from 23 records on 4 April, 2013
WEATHER CONDITIONS BREAKOUT
WIND DIRECTION BREAKOUT
WEATHER BY HOUR - 4 APRIL, 2013
[ °F ]   °C
Local TimeTemperatureDewpointHumidityBarometerVisibilityWind DirectionWind SpeedGust SpeedPrecipitationEventsConditions
1:51 AM4.4 °C-5 °C51 %1024.4 hPa16.1 kmEast (80°)9.3 km/hMostly Cloudy
2:51 AM4.4 °C-5 °C51 %1023.4 hPa16.1 kmEast (80°)5.6 km/hMostly Cloudy
3:51 AM5 °C-5.6 °C47 %1023 hPa16.1 kmCalmScattered Clouds
4:51 AM3.9 °C-5.6 °C50 %1022.7 hPa16.1 kmNE (50°)9.3 km/hClear
5:51 AM3.3 °C-5.6 °C53 %1023 hPa16.1 kmENE (60°)7.4 km/hPartly Cloudy
6:51 AM3 °C-6 °C52 %1022.7 hPa16.1 kmNE (40°)5.6 km/hScattered Clouds
7:51 AM4.4 °C-4.4 °C53 %1023.4 hPa16.1 kmNE (40°)5.6 km/hScattered Clouds
8:51 AM7.2 °C-6.1 °C39 %1022.7 hPa16.1 kmEast (90°)7.4 km/hScattered Clouds
9:51 AM8.9 °C-7.2 °C32 %1021.7 hPa16.1 kmVariable5.6 km/hScattered Clouds
10:51 AM10.6 °C-9.4 °C24 %1021.3 hPa16.1 kmEast (80°)9.3 km/hPartly Cloudy
11:51 AM11.7 °C-8.3 °C24 %1021 hPa16.1 kmEast (80°)11.1 km/hScattered Clouds
12:51 PM12.8 °C-8.3 °C23 %1020.3 hPa16.1 kmVariable5.6 km/hPartly Cloudy
1:51 PM13.9 °C-7.2 °C23 %1019.6 hPa16.1 kmVariable5.6 km/hScattered Clouds
2:51 PM15.6 °C-6.1 °C22 %1019 hPa16.1 kmVariable11.1 km/hScattered Clouds
3:51 PM16.1 °C-5.6 °C22 %1017.9 hPa16.1 kmNNE (30°)13 km/hMostly Cloudy
4:51 PM15.6 °C-6.1 °C22 %1017.9 hPa16.1 kmNNW (340°)9.3 km/hMostly Cloudy
5:51 PM15 °C-6.7 °C22 %1017.6 hPa16.1 kmCalmMostly Cloudy
6:51 PM13.9 °C-4.4 °C28 %1017.6 hPa16.1 kmNorth (360°)11.1 km/hScattered Clouds
7:51 PM12.2 °C-5 °C30 %1017.9 hPa16.1 kmNorth (360°)5.6 km/hScattered Clouds
8:51 PM11.7 °C-4.4 °C32 %1017.9 hPa16.1 kmCalmPartly Cloudy
9:51 PM10 °C-3.9 °C38 %1018.6 hPa16.1 kmWest (280°)5.6 km/hClear
10:51 PM8.3 °C-2.8 °C46 %1018.6 hPa16.1 kmWSW (250°)5.6 km/hClear
11:51 PM7.8 °C-2.8 °C47 %1018.6 hPa16.1 kmWSW (250°)5.6 km/hClear
Hourly data recorded from KSTL, located 0 kilometers away from Chesterfield, Missouri







STORIES FROM OUR PARTNERS